This is the latest recevied weather packets stored in our database for station/object KC4BAM. If no packets are shown the sender has not sent any weather packets the latest 10 day(s).
| Time | Temp. | Humidity | Pressure | Rain* | Wind** | Luminosity | Snow |
|---|---|---|---|---|---|---|---|
| 1778053412 | 11.67° C | 95% | 999.1 hPa | 0 mm | - | 0 W/m² | - |
| 1778053110 | 11.67° C | 95% | 999.1 hPa | 0 mm | - | 0 W/m² | - |
| 1778052807 | 11.67° C | 95% | 999 hPa | 1.27 mm | - | 0 W/m² | - |
| 1778052504 | 11.67° C | 95% | 999 hPa | 1.27 mm | - | 0 W/m² | - |
| 1778052202 | 11.67° C | 95% | 999.6 hPa | 0 mm | - | 0 W/m² | - |
| 1778051899 | 11.67° C | 95% | 998.8 hPa | 0 mm | - | 0 W/m² | - |
| 1778051597 | 11.67° C | 95% | 998.5 hPa | 0 mm | - | 0 W/m² | - |
| 1778051294 | 11.67° C | 95% | 998.8 hPa | 0 mm | - | 0 W/m² | - |
| 1778050991 | 11.67° C | 94% | 998.6 hPa | 0 mm | - | 0 W/m² | - |
| 1778050688 | 12.22° C | 94% | 998.2 hPa | 1.78 mm | - | 0 W/m² | - |
| 1778050386 | 12.22° C | 94% | 998.4 hPa | 1.78 mm | - | 0 W/m² | - |
| 1778050082 | 12.22° C | 94% | 998.4 hPa | 0 mm | - | 0 W/m² | - |
| 1778049778 | 12.78° C | 94% | 998.4 hPa | 0 mm | - | 0 W/m² | - |
| 1778049475 | 12.78° C | 94% | 998.3 hPa | 1.27 mm | - | 0 W/m² | - |
| 1778049173 | 12.78° C | 94% | 998.1 hPa | 1.27 mm | - | 0 W/m² | - |
| 1778048871 | 13.33° C | 94% | 998.2 hPa | 0 mm | - | 0 W/m² | - |
| 1778048568 | 13.89° C | 93% | 998.3 hPa | 0 mm | - | 0 W/m² | - |
| 1778048264 | 14.44° C | 93% | 998 hPa | 0 mm | - | 0 W/m² | - |
| 1778047961 | 14.44° C | 93% | 998.2 hPa | 0 mm | - | 0 W/m² | - |
| 1778047660 | 15.56° C | 93% | 998.1 hPa | 0 mm | - | 0 W/m² | - |
| 1778047357 | 16.11° C | 93% | 997.9 hPa | 3.05 mm | - | 0 W/m² | - |
| 1778047054 | 16.67° C | 93% | 997.8 hPa | 30.73 mm | - | 0 W/m² | - |
| 1778046750 | 17.78° C | 92% | 997.8 hPa | 33.53 mm | - | 0 W/m² | - |
| 1778046447 | 17.78° C | 92% | 998.2 hPa | 13.72 mm | - | 0 W/m² | - |
| 1778046143 | 17.78° C | 92% | 997.6 hPa | 10.67 mm | - | 0 W/m² | - |
* Rain latest hour (hover to see other rain measurements)
** Current wind speed in m/s (hover to see current wind gust speed)